User: anonymous   Login
Location: Izdebno
(52.6670°N, 16.2170°E)
Time: 05:15:12
(UTC+01:00)
Language:

Vanguard 1 Rocket - Orbit

View from above orbital plane
View from above orbital plane
View from above satellite
View from above satellite

Ground track
Ground track

The orbit data is extracted from the following two-line orbital elements,

1 00016U 58002A   23029.95803746  .00000041  00000-0  43119-4 0  9997
2 00016  34.2730 272.5267 2027251 311.0704  33.1299 10.48809255559260
Epoch (UTC): 29 January 2023 22:59:34
Eccentricity: 0.2027251
inclination: 34.2730°
perigee height: 650 km
apogee height: 4225 km
right ascension of ascending node: 272.5267°
argument of perigee: 311.0704°
revolutions per day: 10.48809255
mean anomaly at epoch: 33.1299°
orbit number at epoch: 55926

The dashed part of the orbit path shows where the satellite is in the earth's shadow,  

DLR